Regional Weather Roundup
Issued by NWS Huntsville, AL

Home | Current Version | Previous Version | Text Only | Print | Product List | Glossary On
Versions: 1 2 3 4 5 6 7 8 9 10 11 12 13 14 15 16 17 18 19 20 21 22 23 24 25 26 27 28 29 30 31 32 33 34 35 36 37 38 39 40 41 42 43 44 45 46 47 48 49 50
000
ASUS44 KHUN 070110
RWRHUN

WEATHER ROUNDUP FOR THE TENNESSEE VALLEY
NATIONAL WEATHER SERVICE HUNTSVILLE AL
800 PM CDT WED MAY 06 2015

ALZ001>004-070200-
NORTHWEST ALABAMA

CITY           SKY/WX    TMP DP  RH WIND       PRES   REMARKS
COURTLAND HCN    N/A     72 N/A N/A SE5         N/A
BANKHEAD NF      N/A     65  53  65 CALM        N/A
RUSSELLVILLE     N/A     68 N/A N/A MISG        N/A
SHOALS AIRPORT CLEAR     69  55  60 SE3       30.10R
SHOALS TVA RES   N/A     75 N/A N/A MISG        N/A
$$

ALZ005>007-016-070200-
NORTH CENTRAL ALABAMA

CITY           SKY/WX    TMP DP  RH WIND       PRES   REMARKS
CULLMAN AG STN   N/A     66 N/A N/A CALM        N/A
DECATUR AP     CLEAR     67  55  65 CALM      30.10S
HUNTSVILLE AP  CLEAR     75  51  43 S5        30.10R
HUN NWS/UAH      N/A     75  48  38 S2          N/A
MERIDIANVILLE  CLEAR     70  46  43 CALM      30.10S
REDSTONE ARSN  CLEAR     72  52  49 S1        30.09S
VINEMONT AP    FAIR      65  56  71 CALM      30.14R
$$

ALZ008>010-070200-
NORTHEAST ALABAMA

CITY           SKY/WX    TMP DP  RH WIND       PRES   REMARKS
ALBERTVILLE    CLEAR     70  61  73 CALM      30.11S
FORT PAYNE     CLEAR     68  52  56 CALM      30.11R
SCOTTSBORO HCN   N/A     68 N/A N/A MISG        N/A
VALLEY HEAD      N/A     66 N/A N/A MISG        N/A
$$

TNZ076-096-097-070200-
SOUTHEASTERN MIDDLE TENNESSEE

CITY           SKY/WX    TMP DP  RH WIND       PRES   REMARKS
TULLAHOMA      CLEAR     70  52  52 CALM      30.12R
WINCHESTER     CLEAR     72  55  56 CALM      30.11S
$$

...SURROUNDING SITES...

CITY           SKY/WX    TMP DP  RH WIND       PRES   REMARKS
ATLANTA        PTCLDY    76  50  40 SE3       30.11S
ANNISTON       CLEAR     68  57  68 CALM      30.10S
BIRMINGHAM     CLEAR     71  56  58 NE3       30.11S
CHATTANOOGA    PTCLDY    77  54  44 CALM      30.10R
DALTON         CLEAR     70  59  68 CALM      30.11R
GADSDEN        CLEAR    N/A N/A N/A CALM      30.09R
GOLDEN TRNGL   PTCLDY    77  57  50 E7        30.05S
HALEYVILLE       N/A     67  58  72 MISG      30.13R
JACKSON TN     CLEAR     72  52  49 CALM      30.06S
LEWISBURG      FAIR      73  53  49 CALM      30.09R
MEMPHIS        PTCLDY    78  51  38 SE7       30.04S
NASHVILLE      PTCLDY    75  55  49 CALM      30.08R
OXFORD MS      FAIR      70  55  60 SE3       30.07S
ROME           CLEAR     71  56  58 CALM      30.09R
SAVANNAH       CLEAR     70  32  24 CALM      30.08S
TUPELO         CLEAR     77  53  43 SE5       30.06S
TUSCALOOSA     CLEAR     71  59  65 E3        30.07S
$$

...GULF COAST WEATHER...

CITY           SKY/WX    TMP DP  RH WIND       PRES   REMARKS
GULFPORT       CLEAR     75  68  78 SE10      30.04S
PASCAGOULA     CLEAR     71  65  81 S3        30.05S
MOBILE         CLEAR     72  60  66 SE6       30.06S
GULF SHORES    CLEAR     69  66  91 CALM      30.05S
PENSACOLA      PTCLDY    70  66  87 CALM      30.04F
DESTIN         CLEAR     75  67  76 CALM      30.05S
PANAMA CITY    PTCLDY    73  67  81 W5        30.06R
APPALACHICOLA  MOCLDY    76  66  71 W5        30.05R
$$




USA.gov is the U.S. government's official web portal to all federal, state and local government web resources and services.